Simultaneous Nadir Overpasses (SNOs) Predictions

Prediction of SNOs between METOP-B and TERRA Satellite Orbit:

Table of predicted SNOs for the next 14.0 days since TLE Epoch: 8/26/2022
Index Date (METOP-B) Time (METOP-B) Lat,Lon (METOP-B) SZA (METOP-B ) Date (TERRA) Time (TERRA) Lat,Lon (TERRA) SZA (TERRA ) Distance(km) Time Diff (sec)
1 08/29/2022 02:19:52 -81.14, 4.91 106.21 08/29/2022 02:20:03 -81.14, 4.75 106.22 2.88 11
2 08/29/2022 03:10:31 81.17, 172.95 73.90 08/29/2022 03:09:28 81.16, 172.78 73.85 2.98 63
3 08/31/2022 21:03:34 81.12, -96.84 74.71 08/31/2022 21:04:47 81.12, -96.66 74.76 3.12 73
4 08/31/2022 21:54:12 -81.15, 71.51 105.16 08/31/2022 21:54:13 -81.15, 71.33 105.18 3.22 1
5 08/31/2022 22:44:52 81.16,-120.84 74.90 08/31/2022 22:43:38 81.17,-120.67 74.89 3.08 74
6 09/03/2022 16:37:54 81.12, -30.28 75.77 09/03/2022 16:38:57 81.13, -30.17 75.81 1.97 63
7 09/03/2022 17:28:33 -81.14, 137.71 104.14 09/03/2022 17:28:23 -81.15, 137.84 104.12 2.41 10
8 09/06/2022 12:12:14 81.13, 36.25 76.85 09/06/2022 12:13:07 81.13, 36.26 76.87 0.22 53
9 09/06/2022 13:02:53 -81.15,-155.74 103.06 09/06/2022 13:02:33 -81.15,-155.70 103.06 0.82 20
10 09/09/2022 07:46:33 81.13, 102.75 77.93 09/09/2022 07:47:16 81.12, 102.63 77.93 2.15 43



Historial Predications of SNOs between METOP-B and TERRA
